Regional Weather Roundup
Issued by NWS

Home | Current Version | Previous Version | Graphics & Text | Print | Product List | Glossary On
Versions: 1 2 3 4 5 6 7 8 9 10 11 12 13 14 15 16 17 18 19 20 21 22 23 24 25 26 27 28 29 30 31 32 33 34 35 36 37 38 39 40 41 42 43 44 45 46 47 48 49 50
000
ASUS43 KMKX 260621
RWRWI

WISCONSIN REGIONAL WEATHER ROUNDUP
NATIONAL WEATHER SERVICE MILWAUKEE/SULLIVAN WI
1200 AM CST MON JAN 26 2015

NOTE: "FAIR" INDICATES FEW OR NO CLOUDS BELOW 12,000 FEET WITH NO
SIGNIFICANT WEATHER AND/OR OBSTRUCTIONS TO VISIBILITY.

WIZ001-002-006>008-014>016-023>028-260700-
NORTHWEST WISCONSIN

CITY           SKY/WX    TMP DP  RH WIND       PRES   REMARKS
SUPERIOR ARPT  CLOUDY    19  12  76 CALM      29.91F
6HR MIN TEMP:  15; 6HR MAX TEMP:  20;

ASHLAND        MOCLDY    13   7  77 SW5       29.95F WCI   5
6HR MIN TEMP:   6; 6HR MAX TEMP:  16;

HAYWARD        MOCLDY    10   6  84 CALM      29.94F
6HR MIN TEMP:   7; 6HR MAX TEMP:  16;

SIREN          CLOUDY    21  11  66 S8        29.94F WCI  11
6HR MIN TEMP:  19; 6HR MAX TEMP:  23;

CUMBERLAND     MOCLDY    14   9  79 S6        29.95F WCI   5
RICE LAKE      MOCLDY    15  10  79 S5        29.99F WCI   8
6HR MIN TEMP:  12; 6HR MAX TEMP:  20;

CHETEK         MOCLDY    14  10  84 CALM      29.99S
6HR MIN TEMP:  12; 6HR MAX TEMP:  19;

LADYSMITH      PTCLDY    16  10  77 S5        29.99S WCI   9
6HR MIN TEMP:  11; 6HR MAX TEMP:  18;

EAU CLAIRE     PTCLDY    16   9  74 S6        30.00F WCI   7
6HR MIN TEMP:  16; 6HR MAX TEMP:  22;

MENOMONIE      PTCLDY    17  12  79 S3        30.01S
6HR MIN TEMP:  17; 6HR MAX TEMP:  22;

NEW RICHMOND   CLOUDY    19  14  79 S7        29.98F WCI  10
6HR MIN TEMP:  15; 6HR MAX TEMP:  19;

OSCEOLA        CLOUDY    20  15  81 S6        30.00F WCI  13
6HR MIN TEMP:  19; 6HR MAX TEMP:  21;

$$

WIZ003>005-009-010-017-018-260700-
NORTH CENTRAL WISCONSIN

CITY           SKY/WX    TMP DP  RH WIND       PRES   REMARKS
MANITOWISH WTR PTCLDY     6   2  82 S3        29.92F
6HR MIN TEMP:   2; 6HR MAX TEMP:  13;

ARBOR VITAE    MOCLDY    11   6  79 CALM      29.92F
6HR MIN TEMP:   7; 6HR MAX TEMP:  18;

WOODRUFF       MOCLDY    11   6  79 CALM      29.92F
6HR MIN TEMP:   7; 6HR MAX TEMP:  18;

RHINELANDER    MOCLDY    12   3  67 S5        29.94F WCI   4
6HR MIN TEMP:   7; 6HR MAX TEMP:  17;

EAGLE RIVER    PTCLDY     8   2  76 CALM      29.92F
6HR MIN TEMP:   3; 6HR MAX TEMP:  14;

LAND O LAKES   PTCLDY     7   4  86 S3        29.92F
6HR MIN TEMP:  -3; 6HR MAX TEMP:  13;

PHILLIPS       CLOUDY    10   5  80 S3        29.93F
6HR MIN TEMP:   6; 6HR MAX TEMP:  16;

TOMAHAWK       PTCLDY     7   3  84 CALM      29.96F
6HR MIN TEMP:   6; 6HR MAX TEMP:  16;

MEDFORD        MOCLDY     8   4  84 S7        29.96F WCI  -3
6HR MIN TEMP:   6; 6HR MAX TEMP:  17;

MERRILL        PTCLDY    12   6  77 CALM      29.97F
6HR MIN TEMP:   8; 6HR MAX TEMP:  18;

$$

WIZ029-030-035-036-043>047-260700-
CENTRAL WISCONSIN

CITY           SKY/WX    TMP DP  RH WIND       PRES   REMARKS
WAUSAU         PTCLDY    12   5  73 E6        29.98F WCI   3
6HR MIN TEMP:  12; 6HR MAX TEMP:  18;

MOSINEE        PTCLDY    10   7  85 S5        30.00F WCI   2
MARSHFIELD     MOCLDY    13   5  70 S7        29.99F WCI   3
6HR MIN TEMP:  13; 6HR MAX TEMP:  20;

STEVENS POINT  PTCLDY     7   3  85 CALM      30.02S
6HR MIN TEMP:   6; 6HR MAX TEMP:  14;

WAUPACA        PTCLDY    13   9  81 CALM      30.04F
6HR MIN TEMP:  13; 6HR MAX TEMP:  19;

WAUTOMA        PTCLDY    10   7  88 CALM      30.05S
6HR MIN TEMP:  10; 6HR MAX TEMP:  18;

WISC RAPIDS    PTCLDY    10   4  76 CALM      30.04S
6HR MIN TEMP:  10; 6HR MAX TEMP:  18;

CAMP DOUGLAS   PTCLDY    11  11  98 E5        30.03S WCI   3
6HR MIN TEMP:  11; 6HR MAX TEMP:  21;

$$

WIZ011>013-019>022-031-037>040-048>050-260700-
NORTHEAST WISCONSIN

CITY           SKY/WX    TMP DP  RH WIND       PRES   REMARKS
ANTIGO         MOCLDY     8   2  78 SW5       29.97F WCI  -1
6HR MIN TEMP:   4; 6HR MAX TEMP:  15;

SHAWANO        PTCLDY    13   8  81 CALM      30.04F
6HR MIN TEMP:  12; 6HR MAX TEMP:  19;

OCONTO         PTCLDY     8   6  93 CALM      30.04F
6HR MIN TEMP:   7; 6HR MAX TEMP:  15;

STURGEON BAY   CLEAR     10   7  85 CALM      30.04F
6HR MIN TEMP:   9; 6HR MAX TEMP:  16;

GREEN BAY      CLEAR     13   7  77 CALM      30.04F
6HR MIN TEMP:  13; 6HR MAX TEMP:  17;

MANITOWOC      PTCLDY    14  10  84 NW3       30.04S
6HR MIN TEMP:  14; 6HR MAX TEMP:  19;

APPLETON       CLEAR     14   5  67 N5        30.03F WCI   6
CLINTONVILLE   PTCLDY    10   5  79 CALM      30.03F
OSHKOSH        PTCLDY    15   6  67 NW6       30.03S WCI   6
6HR MIN TEMP:  14; 6HR MAX TEMP:  18;

$$

WIZ032>034-041-042-053>061-260700-
SOUTHWEST WISCONSIN

CITY           SKY/WX    TMP DP  RH WIND       PRES   REMARKS
LA CROSSE      PTCLDY    21  14  74 S3        30.04S
6HR MIN TEMP:  20; 6HR MAX TEMP:  26;

SPARTA         PTCLDY    16  12  85 CALM      30.05S
6HR MIN TEMP:  16; 6HR MAX TEMP:  23;

VIROQUA        PTCLDY    18  12  78 SE3       30.00F
6HR MIN TEMP:  18; 6HR MAX TEMP:  21;

BOSCOBEL       MOCLDY    19  11  70 CALM      30.06S
6HR MIN TEMP:  18; 6HR MAX TEMP:  23;

PRAIRIE DU CHI MOCLDY    18  12  80 CALM      30.06S
6HR MIN TEMP:  18; 6HR MAX TEMP:  25;

PLATTEVILLE    MOCLDY    18  13  80 NE3       30.03S
6HR MIN TEMP:  14; 6HR MAX TEMP:  19;

$$

WIZ056-057-062-063-064-067-068-260700-
SOUTH CENTRAL WISCONSIN

CITY           SKY/WX    TMP DP  RH WIND       PRES   REMARKS
REEDSBURG      PTCLDY    15  10  80 CALM      30.04S
6HR MIN TEMP:  14; 6HR MAX TEMP:  20;

BARABOO/DELLS  PTCLDY    12   8  85 CALM      30.03F
6HR MIN TEMP:  12; 6HR MAX TEMP:  19;

LONE ROCK      PTCLDY    15   9  76 CALM      30.06S
6HR MIN TEMP:  15; 6HR MAX TEMP:  21;

MINERAL POINT  NOT AVBL
MADISON        PTCLDY    14   9  80 NW3       30.03S
6HR MIN TEMP:  14; 6HR MAX TEMP:  19;

MIDDLETON      PTCLDY    17  11  79 CALM      30.03F
6HR MIN TEMP:  17; 6HR MAX TEMP:  21;

WATERTOWN      CLEAR     14  10  85 NW6       30.02F WCI   5
6HR MIN TEMP:  14; 6HR MAX TEMP:  19;

MONROE         MOCLDY    16  12  86 NW6       30.01S WCI   7
JANESVILLE     PTCLDY    18  12  79 N5        30.01S WCI  11
$$

WIZ051-052-058>065-066-070>072-260700-
SOUTHEAST WISCONSIN

CITY           SKY/WX    TMP DP  RH WIND       PRES   REMARKS
MILWAUKEE      MOCLDY    20  11  68 NW7       30.00F WCI  11
6HR MIN TEMP:  23; 6HR MAX TEMP:  25;

WAUKESHA       CLEAR     14  10  85 NW5       30.02R WCI   6
MILWAUKEE/TIMM CLEAR     18  12  79 N9        30.03R WCI   6
RACINE         CLEAR     24  13  62 NE8       30.01S WCI  15
6HR MIN TEMP:  23; 6HR MAX TEMP:  26;

BURLINGTON     CLEAR     15  11  83 N8        30.00S WCI   4
6HR MIN TEMP:  15; 6HR MAX TEMP:  20;

KENOSHA        CLEAR     19  12  74 NE7       29.99S WCI  10
6HR MIN TEMP:  17; 6HR MAX TEMP:  24;

FOND DU LAC    CLEAR     15   7  70 N3        30.03S
6HR MIN TEMP:  14; 6HR MAX TEMP:  18;

SHEBOYGAN      CLEAR     14   9  80 N3        30.03R
6HR MIN TEMP:  14; 6HR MAX TEMP:  20;

WEST BEND      MOCLDY    14  10  85 CALM      30.01S
JUNEAU         PTCLDY    13   8  80 NW3       30.03F
6HR MIN TEMP:  13; 6HR MAX TEMP:  17;

$$

LSZ147-162-260700-
LAKE SUPERIOR

STATION/POSITION TIME  TEMP    WIND        PRES    WAVE
                       AIR SEA DIR/SP/G            HT/PER
                 (UTC) (F)     (DEG/KT/KT) (MB)    (FT/S)
DEVILS ISLAND    0600   20     200/  7/ 10 1015.0F
PORT WING        0600   19     170/  9/ 15 1013.2
SAXON HARBOR     0500    9      CALM  /  5 1014.9F
$$

LMZ867-665-643>646-260700-
LAKE MICHIGAN

STATION/POSITION TIME  TEMP    WIND        PRES    WAVE


USA.gov is the U.S. government's official web portal to all federal, state and local government web resources and services.